[[{"header":{"parameterUnit":"m.s-1","parameterCategory":1,"la1":30.2991,"la2":30.254,"lo1":-89.0895,"lo2":-89.0444,"dy":0.0017,"dx":0.0017,"nx":28,"ny":28,"refTime":"2024-10-16T03:00:00:Z","depth":0,"parameterNumber":2,"parameterNumberName":"U-component_of_WINDS"},"data":[0,0,0,0,0,0,0,0,0,0,0,0,0,0,0,0,0,0,0,0,0,0,0,0,0,0,0,0,0,0,0,0,0,0,0,0,0,0,0,0,0,0,0,0,0,0,0,0,0,0,0,0,0,0,0,0,0,0,-5.1526,-5.1526,0,-5.1577,-5.1577,-5.1578,-5.1347,-5.134,-5.1333,-5.1327,-5.1382,-5.139,-5.1397,0,0,0,0,0,0,0,0,0,0,0,0,0,-5.123,-5.1236,-5.1526,-5.1526,-5.1527,-5.1577,-5.1577,-5.1578,-5.1348,-5.134,-5.1331,-5.1324,-5.138,-5.1389,-5.1398,0,0,0,0,0,0,0,0,0,0,0,0,0,-5.1328,-5.1239,-5.1526,-5.1418,-5.1409,-5.1576,-5.1577,-5.1578,-5.1349,-5.1339,-5.1329,-5.132,-5.1377,-5.1388,-5.1399,-5.1674,0,0,-5.1435,-5.144,0,0,0,0,0,0,0,0,-5.1322,-5.1339,-5.1433,-5.1426,-5.1416,-5.1445,-5.1493,-5.161,-5.1352,-5.1372,-5.1327,-5.1315,-5.1411,-5.142,-5.1451,-5.1676,-5.1679,-5.1436,-5.1443,-5.1448,-5.1451,0,0,0,0,0,0,0,-5.1316,-5.1335,-5.1546,-5.1435,-5.1424,-5.1367,-5.137,-5.1514,-5.1448,-5.137,-5.1353,-5.1362,-5.1405,-5.1441,-5.1451,-5.168,-5.1436,-5.1446,-5.1453,-5.1458,-5.213,-5.2141,0,0,0,0,0,0,-5.1323,-5.1331,-5.1544,-5.1547,-5.1343,-5.1381,-5.1384,-5.1446,-5.1446,-5.1436,-5.1371,-5.1351,-5.1426,-5.1438,-5.1452,-5.1773,-5.1448,-5.1459,-5.1466,-5.212,-5.2133,-5.2144,0,0,0,0,0,0,-5.1318,-5.1344,-5.1542,-5.1435,-5.1455,-5.1397,-5.1468,-5.1452,-5.1488,-5.1446,-5.1434,-5.142,-5.1418,-5.1436,-5.162,-5.1771,-5.1464,-5.1475,-5.2107,-5.2124,-5.2139,-5.2417,0,0,0,0,0,0,-5.131,-5.1344,-5.1448,-5.1439,-5.1462,-5.171,-5.1477,-5.146,-5.1508,-5.1483,-5.1489,-5.148,-5.1412,-5.1604,-5.1631,-5.1782,-5.1484,-5.2093,-5.2114,-5.2133,-5.2394,-5.2441,-5.2481,0,0,0,0,0,-5.13,-5.1525,-5.1454,-5.1481,-5.1591,-5.1719,-5.1732,-5.1648,-5.1521,-5.1625,-5.1598,-5.148,-5.175,-5.1625,-5.1654,-5.181,-5.2083,-5.2108,-5.2132,-5.2375,-5.2432,-5.248,0,0,0,0,0,0,-5.1555,-5.1522,-5.1443,-5.1672,-5.17,-5.168,-5.1808,-5.1711,-5.1777,-5.1751,-5.1644,-5.1647,-5.185,-5.1848,-5.1709,-5.2075,-5.1894,-5.1926,-5.2069,-5.2123,-5.2166,-5.2163,-5.1494,0,0,0,0,0,-5.1638,-5.1744,-5.1709,-5.1915,-5.1932,-5.1869,-5.1921,-5.1853,-5.1879,-5.189,-5.1876,-5.1906,-5.1997,-5.2059,-5.2141,-5.2392,-5.239,-5.2514,-5.2557,-5.2593,-5.2622,-5.2754,-5.2808,-5.2225,-5.2225,-5.2224,0,0,-5.181,-5.1805,-5.1879,-5.1966,-5.1979,-5.2092,-5.188,-5.2009,-5.2092,-5.191,-5.2082,-5.2074,-5.2099,-5.2318,-5.2414,-5.2323,-5.2782,-5.2624,-5.2653,-5.2663,-5.2785,-5.284,-5.2889,-5.2241,-5.2238,-5.2236,0,0,-5.2182,-5.2189,-5.2359,-5.2377,-5.24,-5.2355,-5.2397,-5.2391,-5.2378,-5.2549,-5.2414,-5.251,-5.267,-5.2693,-5.2726,-5.3104,-5.2998,-5.3134,-5.3361,-5.3491,-5.3537,-5.3577,-5.3712,-5.3762,-5.3162,-5.3163,-5.3163,0,-5.2394,-5.2558,-5.246,-5.2598,-5.2639,-5.2477,-5.2649,-5.2671,-5.2721,-5.2754,-5.265,-5.2845,-5.2851,-5.3072,-5.3164,-5.3196,-5.324,-5.3134,-5.3538,-5.3577,-5.3614,-5.3741,-5.3792,-5.3179,-5.3177,-5.3176,-5.3174,0,-5.2817,-5.2933,-5.3068,-5.3118,-5.3174,-5.3329,-5.3255,-5.3324,-5.325,-5.3217,-5.3393,-5.3393,-5.3472,-5.3519,-5.3449,-5.3731,-5.3673,-5.3556,-5.3373,-5.3687,-5.3805,-5.3853,-5.3203,-5.3197,-5.3192,-5.3188,0,0,-5.3354,-5.3345,-5.3397,-5.3416,-5.3428,-5.3516,-5.3663,-5.3737,-5.3799,-5.3837,-5.3958,-5.4095,-5.3985,-5.4023,-5.3954,-5.4068,-5.4367,-5.3936,-5.3934,-5.4017,-5.4677,-5.4766,-5.4824,-5.4295,-5.4304,-5.4311,-5.4675,0,-5.3718,-5.3967,-5.3882,-5.4136,-5.4242,-5.4088,-5.4215,-5.4236,-5.4208,-5.4294,-5.4262,-5.4361,-5.4209,-5.4231,-5.4336,-5.4309,-5.4498,-5.4281,-5.4407,-5.4413,-5.4407,-5.4886,-5.4981,-5.5324,-5.472,-5.4728,-5.4734,0,-5.4177,-5.4233,-5.4497,-5.4489,-5.453,-5.4646,-5.4707,-5.479,-5.4811,-5.4782,-5.4823,-5.4729,-5.4872,-5.4687,-5.4883,-5.4737,-5.4783,-5.4777,-5.4788,-5.4798,-5.4594,-5.491,-5.5432,-5.5484,-5.4805,-5.48,-5.4794,0,-5.4543,-5.4684,-5.4859,-5.4881,-5.4876,-5.4961,-5.4963,-5.4973,-5.5023,-5.5076,-5.5107,-5.5177,-5.5217,-5.5273,-5.52,-5.5072,-5.5406,-5.5216,-5.5387,-5.539,-5.5466,-5.5463,-5.6004,-5.5495,-5.5494,-5.5493,-5.5492,0,-5.496,-5.5128,-5.5023,-5.5132,-5.5315,-5.5215,-5.5399,-5.5384,-5.5394,-5.5496,-5.5367,-5.5466,-5.5363,-5.5453,-5.5397,-5.5567,-5.5586,-5.5567,-5.555,-5.558,-5.5582,-5.561,-5.5585,-5.5507,-5.5504,-5.5501,-5.5499,0,-5.5401,-5.5337,-5.5519,-5.5498,-5.5497,-5.5633,-5.5615,-5.5714,-5.5675,-5.5807,-5.5832,-5.5772,-5.5871,-5.5803,-5.5903,-5.5864,-5.6088,-5.6038,-5.6082,-5.6068,-5.6244,-5.6229,-5.6823,-5.6896,-5.6339,-5.6345,-5.6349,0,-5.5672,-5.5797,-5.5789,-5.5848,-5.5858,-5.5955,-5.6004,-5.591,-5.5967,-5.5998,-5.6094,-5.6181,-5.6246,-5.6411,-5.6377,-5.6452,-5.6402,-5.6605,-5.6413,-5.6438,-5.6406,-5.64,-5.6412,-5.6645,-5.6652,-5.6657,-5.6662,0,-5.616,-5.6122,-5.6197,-5.6263,-5.6325,-5.6373,-5.6409,-5.6465,-5.6369,-5.644,-5.6538,-5.6589,-5.6688,-5.6777,-5.6838,-5.6839,-5.6737,-5.6722,-5.6765,-5.6798,-5.6818,-5.681,-5.6189,-5.6709,-5.6704,-5.6701,-5.6698,-5.6696,-5.6524,-5.6628,-5.6638,-5.6727,-5.6744,-5.678,-5.6872,-5.6844,-5.6924,-5.6997,-5.6936,-5.7055,-5.7069,-5.714,-5.7155,-5.7246,-5.7163,-5.7227,-5.7243,-5.726,-5.7285,-5.6802,-5.7257,-5.7255,-5.7254,-5.7253,-5.7252,0,-5.7006,-5.7004,-5.7086,-5.7141,-5.7211,-5.7104,-5.7138,-5.7204,-5.7309,-5.7331,-5.7396,-5.7509,-5.7594,-5.7565,-5.764,-5.7718,-5.7672,-5.7741,-5.7735,-5.7737,-5.7355,-5.731,-5.7777,-5.7777,-5.7776,-5.7776,-5.7776,-5.7776,-5.7265,-5.7434,-5.7397,-5.7573,-5.7569,-5.7683,-5.7712,-5.7745,-5.7762,-5.7893,-5.7962,-5.7942,-5.7943,-5.8017,-5.8089,-5.8078,-5.8113,-5.8199,-5.8172,-5.7816,-5.7764,-5.7715,-5.7672,-5.8207,-5.8208,-5.8546,-5.8549,-5.8552]},{"header":{"parameterUnit":"m.s-1","parameterCategory":1,"la1":30.2991,"la2":30.254,"lo1":-89.0895,"lo2":-89.0444,"dy":0.0017,"dx":0.0017,"nx":28,"ny":28,"refTime":"2024-10-16T03:00:00:Z","depth":0,"parameterNumber":3,"parameterNumberName":"V-component_of_WINDS"},"data":[0,0,0,0,0,0,0,0,0,0,0,0,0,0,0,0,0,0,0,0,0,0,0,0,0,0,0,0,0,0,0,0,0,0,0,0,0,0,0,0,0,0,0,0,0,0,0,0,0,0,0,0,0,0,0,0,0,0,-4.521,-4.5211,0,-4.5263,-4.5264,-4.5264,-4.522,-4.5219,-4.5217,-4.5215,-4.5266,-4.5269,-4.5272,0,0,0,0,0,0,0,0,0,0,0,0,0,-4.5065,-4.5068,-4.521,-4.5211,-4.5211,-4.5263,-4.5264,-4.5264,-4.5221,-4.5219,-4.5216,-4.5214,-4.5265,-4.5269,-4.5272,0,0,0,0,0,0,0,0,0,0,0,0,0,-4.5124,-4.5069,-4.521,-4.5196,-4.5195,-4.5263,-4.5264,-4.5265,-4.5221,-4.5219,-4.5216,-4.5213,-4.5264,-4.5268,-4.5273,-4.5356,0,0,-4.5287,-4.5289,0,0,0,0,0,0,0,0,-4.5121,-4.5129,-4.5197,-4.5197,-4.5196,-4.5232,-4.5231,-4.5295,-4.5222,-4.5211,-4.5215,-4.5212,-4.5257,-4.5262,-4.5278,-4.5358,-4.536,-4.5287,-4.529,-4.5292,-4.5293,0,0,0,0,0,0,0,-4.5117,-4.5127,-4.5231,-4.5198,-4.5198,-4.5185,-4.519,-4.5243,-4.5249,-4.5212,-4.5209,-4.5216,-4.5256,-4.5273,-4.5278,-4.5361,-4.5287,-4.5291,-4.5294,-4.5296,-4.5508,-4.5511,0,0,0,0,0,0,-4.5115,-4.5124,-4.5229,-4.5232,-4.5151,-4.519,-4.5196,-4.5224,-4.5248,-4.5249,-4.5218,-4.5214,-4.5267,-4.5273,-4.528,-4.5376,-4.5292,-4.5296,-4.5299,-4.5506,-4.5509,-4.5512,0,0,0,0,0,0,-4.5112,-4.5125,-4.5227,-4.5177,-4.5189,-4.5195,-4.5227,-4.5226,-4.5243,-4.5253,-4.5253,-4.5235,-4.5265,-4.5274,-4.5337,-4.5377,-4.5298,-4.5302,-4.5502,-4.5507,-4.5511,-4.5571,0,0,0,0,0,0,-4.5108,-4.5124,-4.5157,-4.5178,-4.5192,-4.5285,-4.5229,-4.5229,-4.5252,-4.5246,-4.5269,-4.527,-4.5263,-4.533,-4.5341,-4.5382,-4.5306,-4.5499,-4.5504,-4.5509,-4.5565,-4.5576,-4.5586,0,0,0,0,0,-4.5103,-4.5172,-4.5159,-4.5172,-4.5234,-4.5287,-4.5295,-4.5287,-4.5255,-4.5287,-4.5293,-4.5269,-4.5372,-4.5337,-4.5349,-4.5392,-4.5496,-4.5503,-4.5509,-4.556,-4.5574,-4.5586,0,0,0,0,0,0,-4.5155,-4.5175,-4.516,-4.5239,-4.5262,-4.528,-4.532,-4.5303,-4.5334,-4.5327,-4.5315,-4.5321,-4.5386,-4.5396,-4.5357,-4.5472,-4.5428,-4.5438,-4.5463,-4.5476,-4.5487,-4.5482,-4.531,0,0,0,0,0,-4.5175,-4.5218,-4.5233,-4.53,-4.5312,-4.5314,-4.5337,-4.5329,-4.5352,-4.5361,-4.5371,-4.5393,-4.5429,-4.5454,-4.5488,-4.5567,-4.5569,-4.5602,-4.5613,-4.5621,-4.5629,-4.5667,-4.5681,-4.5534,-4.5534,-4.5534,0,0,-4.5218,-4.5234,-4.5262,-4.5311,-4.5328,-4.537,-4.5323,-4.5371,-4.5401,-4.5368,-4.5427,-4.5436,-4.5459,-4.5529,-4.556,-4.5539,-4.567,-4.563,-4.5637,-4.5639,-4.5675,-4.5689,-4.5701,-4.5538,-4.5537,-4.5537,0,0,-4.5317,-4.5335,-4.5391,-4.5409,-4.5435,-4.5435,-4.5449,-4.5469,-4.5473,-4.5533,-4.5508,-4.5544,-4.5608,-4.5625,-4.5642,-4.5744,-4.5722,-4.5756,-4.5811,-4.5848,-4.586,-4.587,-4.5903,-4.5916,-4.5764,-4.5764,-4.5764,0,-4.5366,-4.5431,-4.5423,-4.5471,-4.5492,-4.5464,-4.552,-4.5537,-4.5572,-4.5586,-4.5562,-4.564,-4.5654,-4.5726,-4.5751,-4.5767,-4.5779,-4.5752,-4.5859,-4.5869,-4.5878,-4.591,-4.5923,-4.5768,-4.5767,-4.5767,-4.5766,0,-4.5488,-4.5533,-4.5575,-4.561,-4.5636,-4.5688,-4.5685,-4.5712,-4.5701,-4.5704,-4.5763,-4.5779,-4.5814,-4.5831,-4.5822,-4.5901,-4.5886,-4.5861,-4.5816,-4.5896,-4.5925,-4.5938,-4.5773,-4.5771,-4.577,-4.5769,0,0,-4.5621,-4.565,-4.5665,-4.5679,-4.5704,-4.5738,-4.5787,-4.5823,-4.5844,-4.5869,-4.5908,-4.5963,-4.5938,-4.5958,-4.5949,-4.5983,-4.6059,-4.5953,-4.5953,-4.5969,-4.6143,-4.616,-4.6174,-4.6045,-4.6047,-4.6049,-4.614,0,-4.5718,-4.5805,-4.5798,-4.5879,-4.5918,-4.5892,-4.5934,-4.5953,-4.5956,-4.5988,-4.5991,-4.6029,-4.5996,-4.6007,-4.6039,-4.6043,-4.6093,-4.6036,-4.6078,-4.608,-4.6071,-4.619,-4.6208,-4.6293,-4.6152,-4.6154,-4.6155,0,-4.5844,-4.5872,-4.5957,-4.5974,-4.599,-4.6029,-4.6059,-4.6091,-4.6111,-4.6111,-4.6131,-4.6116,-4.6163,-4.612,-4.6183,-4.6144,-4.6161,-4.6165,-4.6168,-4.617,-4.612,-4.6191,-4.632,-4.6332,-4.6174,-4.6172,-4.6171,0,-4.5927,-4.5988,-4.6045,-4.6059,-4.6081,-4.6108,-4.6118,-4.6135,-4.6156,-4.6182,-4.6195,-4.6226,-4.6243,-4.6266,-4.6259,-4.6229,-4.6323,-4.6279,-4.6321,-4.6321,-4.634,-4.6338,-4.647,-4.6356,-4.6356,-4.6356,-4.6355,0,-4.6035,-4.6087,-4.6083,-4.6118,-4.6175,-4.6165,-4.6221,-4.6228,-4.6243,-4.6277,-4.6257,-4.6289,-4.628,-4.6311,-4.6306,-4.6357,-4.6365,-4.6364,-4.6362,-4.6364,-4.6364,-4.6373,-4.6366,-4.6359,-4.6358,-4.6358,-4.6357,0,-4.6138,-4.6137,-4.6198,-4.6213,-4.6218,-4.6259,-4.6271,-4.6303,-4.6304,-4.6347,-4.6357,-4.6359,-4.6394,-4.639,-4.643,-4.6427,-4.6488,-4.6481,-4.6482,-4.6479,-4.652,-4.6515,-4.666,-4.6677,-4.6554,-4.6556,-4.6557,0,-4.6205,-4.6244,-4.6263,-4.6285,-4.6297,-4.6333,-4.6353,-4.6345,-4.6367,-4.6391,-4.642,-4.6453,-4.648,-4.6537,-4.6541,-4.657,-4.6561,-4.661,-4.6565,-4.6565,-4.6557,-4.6554,-4.6556,-4.6617,-4.6619,-4.662,-4.6621,0,-4.6323,-4.632,-4.6352,-4.6382,-4.6407,-4.6431,-4.6452,-4.6471,-4.6464,-4.649,-4.6526,-4.6546,-4.6586,-4.6619,-4.6646,-4.6655,-4.6636,-4.6635,-4.6646,-4.6647,-4.6645,-4.6643,-4.6502,-4.6631,-4.663,-4.6629,-4.6629,-4.6629,-4.6408,-4.644,-4.6458,-4.6492,-4.6507,-4.6527,-4.6557,-4.6561,-4.6592,-4.6624,-4.6617,-4.6657,-4.6673,-4.6708,-4.6719,-4.6749,-4.6731,-4.6747,-4.6751,-4.6754,-4.6757,-4.6643,-4.6754,-4.6754,-4.6754,-4.6754,-4.6753,0,-4.6522,-4.6532,-4.6564,-4.6593,-4.662,-4.6601,-4.6623,-4.6646,-4.6681,-4.6698,-4.6724,-4.6764,-4.6795,-4.6801,-4.683,-4.6852,-4.6844,-4.686,-4.6857,-4.6858,-4.6774,-4.676,-4.6866,-4.6866,-4.6866,-4.6866,-4.6866,-4.6866,-4.6584,-4.6636,-4.6636,-4.6694,-4.6703,-4.6742,-4.6756,-4.6773,-4.6786,-4.6832,-4.6858,-4.6862,-4.6873,-4.6903,-4.6929,-4.693,-4.694,-4.6959,-4.6956,-4.6876,-4.6865,-4.6854,-4.6841,-4.6962,-4.6962,-4.7038,-4.7038,-4.7039]}]]